Location: Peebles
(55.6412°N, 3.1714°W)
Time: 11:27:57
(UTC+01:00)

KEPLER-1 (CASE) - Pass Details

Date: 05 July 2022
Orbit: 435 x 454 km, 97.4° (Epoch: 16 August)

Event Time Altitude Azimuth Distance (km) Brightness Sun altitude
Exits shadow 23:39:35 12° 172° (S) 1,451 ? -8.9°
Maximum altitude 23:42:40 72° 256° (WSW) 476 ? -9.1°
Drops below altitude 10° 23:46:05 10° 342° (NNW) 1,596 ? -9.3°
Sets 23:48:09 0° 345° (NNW) 2,479 ? -9.4°
